Location: Vinland
(47.7731°N, 122.6974°W)
Time: 21:43:29
(UTC+00:00)

SR - All Passes

Search period start: 21 March 2023 00:00
Search period end: 31 March 2023 00:00
Orbit: 582 x 866 km, 66.7° (Epoch: 21 March)

Date Brightness Start Highest point End Pass type
(mag) Time Alt. Az. Time Alt. Az. Time Alt. Az.
21 Mar - 11:19:59 10° SSW 11:24:35 60° ESE 11:28:55 10° NE visible
21 Mar - 13:03:13 10° W 13:06:50 23° NW 13:10:21 10° NNE visible
21 Mar - 18:15:40 10° N 18:18:40 18° NE 18:21:41 10° E daylight
21 Mar - 19:56:50 10° NW 20:01:07 81° WSW 20:05:33 10° SSE daylight
22 Mar - 10:30:02 10° S 10:34:05 29° ESE 10:37:54 10° NE visible
22 Mar - 12:11:35 10° WSW 12:15:55 40° NW 12:20:02 10° NNE visible
22 Mar - 13:58:15 10° NW 13:59:02 10° NNW 13:59:48 10° NNW daylight
22 Mar - 17:25:52 10° N 17:27:27 12° NNE 17:29:03 10° NE daylight
22 Mar - 19:06:14 10° NNW 19:10:25 50° NE 19:14:42 10° SE daylight
22 Mar - 20:48:47 10° WNW 20:52:03 21° WSW 20:55:24 10° SSW daylight
23 Mar - 09:41:13 10° SE 09:43:42 14° ESE 09:46:07 10° ENE visible
23 Mar - 11:20:30 10° SW 11:25:08 77° NW 11:29:31 10° NNE visible
23 Mar - 13:05:02 10° WNW 13:07:46 16° NW 13:10:26 10° N visible
23 Mar - 18:15:51 10° NNW 18:19:32 27° NE 18:23:18 10° ESE daylight
23 Mar - 19:57:32 10° NW 20:01:36 43° WSW 20:05:50 10° S daylight
24 Mar - 10:29:58 10° SSW 10:34:30 52° ESE 10:38:46 10° NE visible
24 Mar - 12:12:55 10° W 12:16:41 25° NW 12:20:18 10° NNE visible
24 Mar - 17:25:39 10° N 17:28:28 17° NE 17:31:19 10° ENE daylight
24 Mar - 19:06:43 10° NW 19:11:00 89° NE 19:15:28 10° SSE daylight
24 Mar - 20:50:54 10° W 20:52:18 11° WSW 20:53:44 10° SW daylight
25 Mar - 09:40:10 10° SSE 09:44:00 26° ESE 09:47:40 10° ENE visible
25 Mar - 11:21:23 10° WSW 11:25:45 44° NW 11:29:56 10° NNE visible
25 Mar - 13:07:31 10° NW 13:08:48 11° NNW 13:10:04 10° N visible
25 Mar - 16:36:01 10° N 16:37:13 11° NNE 16:38:26 10° NE daylight
25 Mar - 18:16:09 10° NNW 18:20:16 45° NE 18:24:31 10° ESE daylight
25 Mar - 19:58:31 10° WNW 20:01:59 24° WSW 20:05:34 10° SSW daylight
26 Mar - 08:51:43 10° SE 08:53:39 12° ESE 08:55:32 10° E visible
26 Mar - 10:30:23 10° SW 10:35:00 87° WNW 10:39:22 10° NE visible
26 Mar - 12:14:38 10° WNW 12:17:33 17° NW 12:20:25 10° N visible
26 Mar - 17:25:46 10° NNW 17:29:21 25° NE 17:32:59 10° E daylight
26 Mar - 19:07:20 10° NW 19:11:30 50° WSW 19:15:49 10° SSE daylight
27 Mar - 09:39:58 10° S 09:44:23 46° ESE 09:48:34 10° NE visible
27 Mar - 11:22:37 10° WSW 11:26:29 27° NW 11:30:13 10° NNE visible
27 Mar - 16:35:37 10° N 16:38:14 16° NE 16:40:53 10° ENE daylight
27 Mar - 18:16:34 10° NNW 18:20:52 79° NE 18:25:20 10° SE daylight
27 Mar - 20:00:10 10° W 20:02:14 13° WSW 20:04:20 10° SW daylight
28 Mar - 08:50:18 10° SSE 08:53:54 23° ESE 08:57:21 10° ENE visible
28 Mar - 10:31:09 10° SW 10:35:35 49° NW 10:39:48 10° NNE visible
28 Mar - 12:16:53 10° NW 12:18:32 12° NNW 12:20:10 10° N visible
28 Mar - 15:46:20 10° NNE 15:46:57 10° NNE 15:47:35 10° NE daylight
28 Mar - 17:26:01 10° NNW 17:30:05 40° NE 17:34:16 10° ESE daylight
28 Mar - 19:08:12 10° NW 19:11:52 27° WSW 19:15:40 10° S daylight
29 Mar - 08:02:31 10° ESE 08:03:34 11° ESE 08:04:37 10° E night (unlit)
29 Mar - 09:40:15 10° SSW 09:44:50 84° SE 09:49:12 10° NE visible
29 Mar - 11:24:13 10° W 11:27:19 18° NW 11:30:20 10° N visible
29 Mar - 16:35:40 10° NNW 16:39:07 23° NE 16:42:38 10° E daylight
29 Mar - 18:17:08 10° NW 18:21:21 57° WSW 18:25:46 10° SSE daylight
30 Mar - 08:49:56 10° S 08:54:14 40° ESE 08:58:19 10° NE visible
30 Mar - 10:32:17 10° WSW 10:36:15 30° NW 10:40:05 10° NNE visible
30 Mar - 15:45:33 10° N 15:47:58 14° NNE 15:50:24 10° ENE daylight
30 Mar - 17:26:24 10° NNW 17:30:41 70° NE 17:35:09 10° SE daylight
30 Mar - 19:09:36 10° WNW 19:12:07 15° WSW 19:14:43 10° SW daylight
